DW6623 Weather Reports


time (UTC)temp
C
wind
direction
speed
KPH
gust
KPH
rain 1hr
cm
rain 24hr
cm
rain mn
cm
humidity
%
barometer
mb
20260506122029 13 13 9.7 17.7 0.05 0.10 0.10 92 1011.8
20260506121549 13 306 9.7 19.3 0.08 0.10 0.10 92 1011.7
20260506121028 13 355 8.0 24.1 0.08 0.10 0.10 92 1011.7
20260506120528 13 360 12.9 24.1 0.08 0.10 0.10 92 1011.8
20260506120044 13 30 11.3 20.9 0.08 0.10 0.10 92 1011.5
20260506115528 13 323 9.7 19.3 0.05 0.08 0.08 92 1011.4
20260506115028 13 325 11.3 19.3 0.05 0.08 0.08 92 1011.5
20260506114545 13 315 11.3 19.3 0.03 0.05 0.05 92 1011.3
20260506114028 13 350 9.7 19.3 0.05 0.05 0.05 92 1011.2
20260506113526 13 5 11.3 20.9 0.05 0.05 0.05 92 1011.0
20260506113044 13 317 9.7 20.9 0.05 0.05 0.05 92 1011.1
20260506112531 13 344 8.0 19.3 0.05 0.05 0.05 92 1011.0
20260506112028 13 348 9.7 17.7 0.05 0.05 0.05 92 1010.9
20260506111541 14 336 11.3 19.3 0.03 0.03 0.03 92 1010.9
20260506111029 14 331 9.7 20.9 0.03 0.03 0.03 92 1010.9
20260506110529 14 331 11.3 20.9 0.03 0.03 0.03 92 1010.6
20260506110042 14 338 11.3 19.3 0.03 0.03 0.03 91 1010.6
20260506105529 14 306 12.9 20.9 0.03 0.03 0.03 91 1010.4
20260506105026 14 5 12.9 20.9 0.03 0.03 0.03 91 1010.5
20260506104540 15 333 11.3 20.9 0.03 0.03 0.03 91 1010.3
20260506104026 15 360 6.4 19.3 0.00 0.00 0.00 91 1010.3
20260506103532 15 350 11.3 19.3 0.00 0.00 0.00 91 1010.3
20260506103052 15 324 8.0 19.3 0.00 0.00 0.00 90 1010.0
20260506102526 15 325 8.0 24.1 0.00 0.00 0.00 90 1009.8
20260506102029 15 360 9.7 24.1 0.00 0.00 0.00 90 1009.7
20260506101545 15 344 9.7 20.9 0.00 0.00 0.00 90 1009.7
20260506101031 15 351 12.9 20.9 0.00 0.00 0.00 89 1009.7
20260506100531 15 351 12.9 20.9 0.00 0.00 0.00 89 1009.6
20260506100043 15 336 9.7 17.7 0.00 0.00 0.00 89 1009.7
20260506095528 16 337 6.4 19.3 0.00 0.00 0.00 89 1009.6
20260506095028 16 338 9.7 20.9 0.00 0.00 0.00 89 1009.6
20260506094604 16 340 9.7 20.9 0.00 0.00 0.00 88 1009.4
20260506094026 16 342 11.3 20.9 0.00 0.00 0.00 87 1009.6
20260506093528 16 13 9.7 17.7 0.00 0.00 0.00 87 1009.4
20260506093046 17 348 9.7 17.7 0.00 0.00 0.00 87 1009.2
20260506092526 17 346 9.7 16.1 0.00 0.00 0.00 87 1009.2
20260506092026 17 336 8.0 16.1 0.00 0.00 0.00 86 1009.1
20260506091545 17 319 8.0 17.7 0.00 0.00 0.00 86 1009.2
20260506091026 17 350 8.0 17.7 0.00 0.00 0.00 85 1009.0
20260506090525 17 345 9.7 17.7 0.00 0.00 0.00 85 1009.1
20260506090049 18 327 9.7 17.7 0.00 0.00 0.00 84 1009.0
20260506085528 18 14 8.0 17.7 0.00 0.00 0.00 85 1009.1
20260506085028 18 29 8.0 16.1 0.00 0.00 0.00 85 1009.1
20260506084558 19 338 8.0 16.1 0.00 0.00 0.00 85 1009.0
20260506084029 19 360 6.4 14.5 0.00 0.00 0.00 85 1009.1
20260506083528 20 346 6.4 14.5 0.00 0.00 0.00 85 1009.0
20260506083044 20 5 6.4 14.5 0.00 0.00 0.00 85 1008.9
20260506082528 20 15 6.4 16.1 0.00 0.00 0.00 84 1008.9
20260506082027 20 326 8.0 16.1 0.00 0.00 0.00 84 1008.9
20260506081546 20 5 6.4 16.1 0.00 0.00 0.00 83 1009.0
20260506081028 20 326 6.4 16.1 0.00 0.00 0.00 83 1008.9
20260506080529 20 355 8.0 16.1 0.00 0.00 0.00 82 1008.8
20260506073527 21 323 4.8 17.7 0.00 0.00 0.00 82 1008.8
20260506073052 21 15 9.7 17.7 0.00 0.00 0.00 81 1009.0
20260506072529 22 325 8.0 14.5 0.00 0.00 0.00 81 1009.0
20260506072028 22 333 6.4 9.7 0.00 0.00 0.00 81 1009.0
20260506071540 22 333 4.8 9.7 0.00 0.00 0.00 81 1008.8
20260506071029 23 350 3.2 8.0 0.00 0.00 0.00 81 1008.9
20260506070526 23 317 4.8 8.0 0.00 0.00 0.00 83 1008.9
20260506062028 24 217 6.4 14.5 0.00 0.00 0.00 87 1008.7
20260506061555 24 241 4.8 14.5 0.00 0.00 0.00 87 1008.7
20260506061030 24 209 1.6 8.0 0.00 0.00 0.00 87 1008.9
20260506060532 24 223 3.2 8.0 0.00 0.00 0.00 87 1008.9
20260506051025 24 205 4.8 9.7 0.00 0.00 0.00 86 1008.4
20260506050529 24 225 4.8 9.7 0.00 0.00 0.00 85 1008.4
20260506045030 24 198 3.2 11.3 0.00 0.00 0.00 85 1008.1
20260506044547 24 209 4.8 9.7 0.00 0.00 0.00 85 1008.2
20260506044028 25 0 3.2 9.7 0.00 0.00 0.00 85 1008.2
20260506043528 25 200 4.8 8.0 0.00 0.00 0.00 85 1008.1
20260506043042 25 183 3.2 9.7 0.00 0.00 0.00 85 1008.2
20260506042526 25 193 0.0 12.9 0.00 0.00 0.00 85 1008.2
20260506042026 24 199 4.8 12.9 0.00 0.00 0.00 85 1008.0
20260506041548 24 171 6.4 12.9 0.00 0.00 0.00 85 1007.8
20260506041025 24 147 6.4 12.9 0.00 0.00 0.00 85 1007.6
20260506040525 24 136 6.4 12.9 0.00 0.00 0.00 84 1007.6
20260506040051 25 150 6.4 11.3 0.00 0.00 0.00 84 1007.7
20260506035527 25 160 4.8 11.3 0.00 0.00 0.00 84 1007.8
20260506035030 25 171 4.8 11.3 0.00 0.00 0.00 83 1007.8
20260506034548 25 182 3.2 8.0 0.00 0.00 0.00 83 1007.7
20260506034049 25 152 3.2 8.0 0.00 0.00 0.00 83 1007.7
20260506033525 25 180 3.2 8.0 0.00 0.00 0.00 83 1007.6
20260506033046 25 186 4.8 12.9 0.00 0.00 0.00 83 1007.4
20260506032528 25 165 4.8 12.9 0.00 0.00 0.00 83 1007.4
20260506032027 25 144 3.2 8.0 0.00 0.00 0.00 82 1007.0
20260506031550 25 140 1.6 11.3 0.00 0.00 0.00 82 1006.9
20260506031026 25 153 4.8 11.3 0.00 0.00 0.00 82 1007.0
20260506030525 25 180 4.8 11.3 0.00 0.00 0.00 82 1006.8
20260506030050 25 161 3.2 11.3 0.00 0.00 0.00 82 1006.6
20260506025526 25 175 4.8 11.3 0.00 0.00 0.00 82 1006.4
20260506025025 25 167 4.8 11.3 0.00 0.00 0.00 82 1006.3
20260506024557 25 184 4.8 11.3 0.00 0.00 0.00 82 1006.4
20260506024025 25 171 4.8 12.9 0.00 0.00 0.00 82 1006.2
20260506023529 25 161 6.4 12.9 0.00 0.00 0.00 81 1005.9
20260506023042 25 139 6.4 12.9 0.00 0.00 0.00 81 1005.9
20260506022530 25 150 4.8 11.3 0.00 0.00 0.00 81 1005.9
20260506022029 25 142 4.8 12.9 0.00 0.00 0.00 80 1005.9
20260506021558 25 148 4.8 12.9 0.00 0.00 0.00 80 1005.9
20260506021028 25 147 6.4 12.9 0.00 0.00 0.00 79 1006.0
20260506020525 26 146 4.8 12.9 0.00 0.00 0.00 79 1005.9
20260506020046 26 141 4.8 11.3 0.00 0.00 0.00 79 1005.8
20260506015531 26 161 6.4 14.5 0.00 0.00 0.00 78 1005.8
20260506015026 26 148 3.2 16.1 0.00 0.00 0.00 78 1005.7
20260506014544 26 154 6.4 17.7 0.00 0.00 0.00 78 1005.7
20260506014030 26 167 6.4 17.7 0.00 0.00 0.00 78 1005.6
20260506013528 26 157 6.4 11.3 0.00 0.00 0.00 77 1005.7
20260506013054 26 145 4.8 11.3 0.00 0.00 0.00 77 1005.7
20260506012528 26 139 4.8 11.3 0.00 0.00 0.00 76 1005.6
20260506012029 26 153 4.8 12.9 0.00 0.00 0.00 76 1005.7
20260506011545 27 144 6.4 12.9 0.00 0.00 0.00 75 1005.7
20260506011031 27 178 6.4 12.9 0.00 0.00 0.00 75 1005.8
20260506010528 27 178 6.4 16.1 0.00 0.00 0.00 75 1005.6
20260506010040 27 200 4.8 19.3 0.00 0.00 0.00 75 1005.6
20260506005529 27 199 8.0 22.5 0.00 0.00 0.00 74 1005.5
20260506005029 27 185 11.3 25.7 0.00 0.00 0.00 74 1005.4
20260506004543 27 171 9.7 25.7 0.00 0.00 0.00 74 1005.3
20260506004027 27 163 12.9 25.7 0.00 0.00 0.00 73 1005.2
20260506003532 27 150 11.3 24.1 0.00 0.00 0.00 73 1005.3
20260506003048 27 187 12.9 24.1 0.00 0.00 0.00 73 1005.3
20260506002529 27 184 12.9 24.1 0.00 0.00 0.00 72 1005.1
20260506002028 27 193 14.5 25.7 0.00 0.00 0.00 72 1005.1
20260506001549 28 188 14.5 33.8 0.00 0.00 0.00 71 1005.3
20260506001027 28 209 16.1 33.8 0.00 0.00 0.00 71 1005.2
20260506000529 28 169 12.9 25.7 0.00 0.00 0.00 71 1005.3
20260506000047 28 200 14.5 30.6 0.00 0.00 0.00 70 1005.5
20260505235533 28 180 16.1 32.2 0.00 0.00 0.00 71 1005.4
20260505235030 28 194 19.3 32.2 0.00 0.00 0.00 70 1005.3
20260505234545 28 176 11.3 29.0 0.00 0.00 0.00 70 1005.2
20260505234029 28 191 11.3 30.6 0.00 0.00 0.00 70 1005.3
20260505233527 28 159 17.7 32.2 0.00 0.00 0.00 70 1005.3
20260505233045 28 150 16.1 32.2 0.00 0.00 0.00 70 1005.2
20260505232531 28 189 16.1 29.0 0.00 0.00 0.00 71 1005.1
20260505232036 28 198 14.5 35.4 0.00 0.00 0.00 70 1004.8
20260505231603 28 198 16.1 35.4 0.00 0.00 0.00 70 1004.9
20260505231028 28 160 17.7 30.6 0.00 0.00 0.00 70 1004.9
20260505230528 28 207 14.5 30.6 0.00 0.00 0.00 70 1005.0
20260505230051 28 191 12.9 29.0 0.00 0.00 0.00 70 1004.9
20260505225529 28 173 11.3 29.0 0.00 0.00 0.00 70 1004.9
20260505225029 28 196 12.9 30.6 0.00 0.00 0.00 71 1005.0
20260505224546 28 180 14.5 30.6 0.00 0.00 0.00 71 1004.9
20260505224029 28 191 14.5 29.0 0.00 0.00 0.00 70 1005.1
20260505223528 28 186 12.9 29.0 0.00 0.00 0.00 70 1005.1
20260505223050 28 159 12.9 33.8 0.00 0.00 0.00 70 1004.8
20260505222529 28 192 14.5 33.8 0.00 0.00 0.00 71 1005.1
20260505222029 28 156 16.1 37.0 0.00 0.00 0.00 70 1004.8
20260505221551 28 148 16.1 37.0 0.00 0.00 0.00 70 1004.6
20260505221027 28 168 19.3 35.4 0.00 0.00 0.00 70 1004.6
20260505220528 28 165 14.5 41.8 0.00 0.00 0.00 69 1004.7
20260505220051 28 177 17.7 41.8 0.00 0.00 0.00 70 1004.8
20260505215528 28 176 17.7 35.4 0.00 0.00 0.00 70 1004.9
20260505215028 28 184 19.3 38.6 0.00 0.00 0.00 70 1004.9
20260505214603 28 170 19.3 40.2 0.00 0.00 0.00 71 1005.1
20260505214028 28 192 19.3 43.5 0.00 0.00 0.00 70 1005.0
20260505213528 28 180 19.3 43.5 0.00 0.00 0.00 69 1005.1
20260505213040 28 164 20.9 40.2 0.00 0.00 0.00 69 1005.3
20260505212528 28 179 16.1 35.4 0.00 0.00 0.00 68 1005.3
20260505212029 28 192 17.7 35.4 0.00 0.00 0.00 69 1005.4
20260505211539 29 177 16.1 29.0 0.00 0.00 0.00 68 1005.4
20260505211028 29 169 12.9 29.0 0.00 0.00 0.00 68 1005.6
20260505210528 28 175 14.5 29.0 0.00 0.00 0.00 68 1005.7
20260505210045 28 159 14.5 32.2 0.00 0.00 0.00 69 1005.7
20260505205530 28 165 17.7 35.4 0.00 0.00 0.00 69 1005.8
20260505205027 28 157 17.7 35.4 0.00 0.00 0.00 69 1005.8
20260505204547 28 177 12.9 20.9 0.00 0.00 0.00 70 1005.9
20260505204028 28 200 11.3 29.0 0.00 0.00 0.00 71 1006.0
20260505203528 28 182 14.5 33.8 0.00 0.00 0.00 71 1006.0
20260505203043 28 145 17.7 43.5 0.00 0.00 0.00 70 1006.2
20260505202530 28 190 24.1 43.5 0.00 0.00 0.00 69 1005.9
20260505202028 28 200 11.3 30.6 0.00 0.00 0.00 69 1005.9
20260505201539 28 188 17.7 40.2 0.00 0.00 0.00 70 1005.9
20260505201027 27 170 16.1 40.2 0.00 0.00 0.00 70 1005.8
20260505200529 27 194 22.5 40.2 0.00 0.00 0.00 70 1005.9
20260505200056 28 154 20.9 43.5 0.00 0.00 0.00 70 1005.9
20260505195527 28 167 19.3 43.5 0.00 0.00 0.00 70 1005.9
20260505195028 28 195 19.3 38.6 0.00 0.00 0.00 70 1006.0
20260505194545 27 191 16.1 45.1 0.00 0.00 0.00 71 1006.0
20260505194029 27 191 24.1 45.1 0.00 0.00 0.00 72 1006.4
20260505193528 27 189 20.9 41.8 0.00 0.00 0.00 71 1006.4
20260505193045 27 182 17.7 37.0 0.00 0.00 0.00 72 1006.6
20260505192528 27 180 20.9 37.0 0.00 0.00 0.00 71 1006.6
20260505192027 27 174 19.3 37.0 0.00 0.00 0.00 72 1006.5
20260505191546 27 179 14.5 37.0 0.00 0.00 0.00 71 1006.5
20260505191028 27 202 12.9 37.0 0.00 0.00 0.00 71 1006.5
20260505190527 27 203 14.5 37.0 0.00 0.00 0.00 72 1006.5
20260505190041 27 207 17.7 35.4 0.00 0.00 0.00 72 1006.5
20260505185528 27 203 17.7 41.8 0.00 0.00 0.00 73 1006.4
20260505185033 27 181 19.3 41.8 0.00 0.00 0.00 73 1006.5
20260505184545 27 159 16.1 40.2 0.00 0.00 0.00 72 1006.5
20260505184031 26 159 9.7 40.2 0.00 0.00 0.00 74 1006.7
20260505183528 26 189 20.9 41.8 0.00 0.00 0.00 74 1006.7
20260505183055 26 165 19.3 41.8 0.00 0.00 0.00 73 1006.7
20260505182527 26 172 19.3 46.7 0.00 0.00 0.00 73 1006.7
20260505182026 26 200 19.3 46.7 0.00 0.00 0.00 73 1006.9
20260505181550 26 177 24.1 46.7 0.00 0.00 0.00 74 1006.9
20260505181027 26 177 29.0 49.9 0.00 0.00 0.00 74 1006.8
20260505180528 26 208 22.5 49.9 0.00 0.00 0.00 75 1007.0
20260505180050 26 166 19.3 45.1 0.00 0.00 0.00 76 1007.0
20260505175526 25 182 22.5 45.1 0.00 0.00 0.00 76 1007.2
20260505175029 25 146 19.3 54.7 0.00 0.00 0.00 76 1007.3
20260505174545 25 193 22.5 54.7 0.00 0.00 0.00 76 1007.4
20260505174027 25 211 24.1 41.8 0.00 0.00 0.00 76 1007.4
20260505173526 25 173 14.5 37.0 0.00 0.00 0.00 77 1007.4
20260505173045 25 163 19.3 37.0 0.00 0.00 0.00 77 1007.3
20260505172526 25 181 20.9 35.4 0.00 0.00 0.00 77 1007.1
20260505172029 25 198 17.7 37.0 0.00 0.00 0.00 77 1006.9
20260505171549 25 220 17.7 46.7 0.00 0.00 0.00 77 1006.9
20260505171030 25 201 17.7 46.7 0.00 0.00 0.00 77 1006.9
20260505170529 25 170 20.9 45.1 0.00 0.00 0.00 77 1007.0
20260505170045 25 175 29.0 45.1 0.00 0.00 0.00 77 1007.0
20260505165529 25 170 17.7 35.4 0.00 0.00 0.00 77 1007.0
20260505165029 25 199 17.7 43.5 0.00 0.00 0.00 77 1006.9
20260505164546 25 213 20.9 45.1 0.00 0.00 0.00 77 1007.0
20260505164028 25 188 19.3 45.1 0.00 0.00 0.00 78 1007.0
20260505163529 25 206 20.9 43.5 0.00 0.00 0.00 78 1007.0
20260505163046 25 180 20.9 43.5 0.00 0.00 0.00 78 1007.0
20260505162527 24 214 16.1 40.2 0.00 0.00 0.00 79 1007.1
20260505162027 24 238 20.9 41.8 0.00 0.00 0.00 78 1007.2
20260505161543 24 208 19.3 43.5 0.00 0.00 0.00 79 1007.1
20260505161029 24 173 24.1 48.3 0.00 0.00 0.00 80 1007.1
20260505160530 24 153 25.7 48.3 0.00 0.00 0.00 79 1007.1
20260505153045 23 194 24.1 56.3 0.00 0.00 0.00 80 1007.2
20260505152528 23 157 25.7 56.3 0.00 0.00 0.00 81 1007.2
20260505152029 23 205 22.5 49.9 0.00 0.00 0.00 81 1007.2
20260505151551 23 206 20.9 49.9 0.00 0.00 0.00 81 1007.1
20260505151027 23 196 19.3 48.3 0.00 0.00 0.00 81 1007.2
20260505150529 23 167 20.9 48.3 0.00 0.00 0.00 81 1007.3
20260505140527 22 181 20.9 46.7 0.00 0.00 0.00 82 1007.1
20260505140108 22 211 24.1 43.5 0.00 0.00 0.00 82 1006.9
20260505125028 21 153 17.7 41.8 0.00 0.00 0.00 84 1006.8
20260505124547 21 206 20.9 41.8 0.00 0.00 0.00 84 1006.7
20260505124029 21 165 12.9 32.2 0.00 0.00 0.00 84 1006.7
20260505123529 21 165 19.3 32.2 0.00 0.00 0.00 84 1006.5
20260505123049 21 196 16.1 32.2 0.00 0.00 0.00 85 1006.5
20260505122529 21 206 12.9 30.6 0.00 0.00 0.00 85 1006.5